Simultaneous Nadir Overpasses (SNOs) Predictions

Prediction of SNOs between TERRA and METOP-C Satellite Orbit:

Table of predicted SNOs for the next 14.0 days since TLE Epoch: 2/22/2020
Index Date (TERRA) Time (TERRA) Lat,Lon (TERRA) SZA (TERRA ) Date (METOP-C) Time (METOP-C) Lat,Lon (METOP-C) SZA (METOP-C ) Distance(km) Time Diff (sec)
1 02/23/2020 05:39:34 81.27, 141.66 93.57 02/23/2020 05:38:37 81.28, 141.81 93.57 2.63 57
2 02/23/2020 06:28:59 -81.29, -50.38 86.40 02/23/2020 06:29:17 -81.28, -50.54 86.41 2.66 18
3 02/26/2020 01:13:48 81.28,-151.76 92.57 02/26/2020 01:12:56 81.28,-151.65 92.56 1.87 52
4 02/26/2020 02:03:14 -81.30, 16.22 87.40 02/26/2020 02:03:36 -81.29, 16.37 87.38 2.59 22
5 02/28/2020 20:48:02 81.27, -85.41 91.52 02/28/2020 20:47:17 81.28, -85.50 91.49 1.67 45
6 02/28/2020 21:37:28 -81.29, 82.60 88.45 02/28/2020 21:37:57 -81.29, 82.49 88.45 1.84 29
7 03/02/2020 16:22:14 81.28, -18.89 90.47 03/02/2020 16:21:37 81.28, -18.95 90.46 1.09 37
8 03/02/2020 17:11:40 -81.30, 149.13 89.49 03/02/2020 17:12:17 -81.29, 149.00 89.49 2.37 37
9 03/05/2020 11:56:23 81.29, 47.78 89.44 03/05/2020 11:55:56 81.28, 47.60 89.41 3.19 27




NCC Satellite Simultaneous Nadir Overpasses (SNOs) Prediction Service
